Location: Collamer Heights
(42.9775°N, 73.7856°W)
Time: 02:23:05
(UTC+00:00)

Daily predictions for brighter satellites

Satellite Brightness Start Highest point End
(mag) Time Altitude Azimuth Time Altitude Azimuth Time Altitude Azimuth
USA 238 DEB 4.1 00:46:33 10° NW 00:53:51 75° WSW 01:01:27 10° SSE
USA 238 4.1 00:46:39 10° NW 00:53:57 76° WSW 01:01:33 10° SSE
IRIS 4.0 00:53:16 10° W 00:55:44 60° S 00:59:07 10° E
Cosmos 44 Rocket 4.2 00:51:55 10° S 00:56:20 30° ESE 01:00:51 10° NE
NOSS 7 (H) 4.4 00:54:43 10° SW 00:58:27 87° WNW 01:01:30 10° NE
ISS -1.1 00:56:05 10° NW 00:58:33 18° N 01:01:01 10° NE
IRS-1A Rocket 4.3 00:57:47 10° SSE 01:03:19 76° ENE 01:08:50 10° NNW
Ariane Rocket 3.0 00:59:18 10° SSE 01:04:21 72° ENE 01:09:25 10° N
ERS-2 2.2 01:01:42 10° NNE 01:05:18 56° ESE 01:08:52 10° S
Helios 1A Rocket 3.7 01:04:19 10° S 01:08:14 51° W 01:12:13 10° NNW
OAO 2 Rocket 4.2 01:05:46 10° WSW 01:10:15 33° S 01:14:32 11° ESE
Cosmos 1818 4.2 01:06:24 10° SW 01:11:47 63° NW 01:17:15 10° NNE
USA 276 4.3 01:12:44 10° WNW 01:15:27 25° NNW 01:18:10 10° NE
Cosmos 2221 3.1 01:11:25 10° N 01:15:28 39° ENE 01:19:20 11° SE
Cosmos 1242 Rocket 2.5 01:12:30 10° N 01:16:05 64° ENE 01:19:37 10° SSE
MOS 1 4.4 01:11:07 10° SSE 01:16:48 82° WSW 01:22:29 10° NNW
USA 307 3.5 01:13:30 10° WNW 01:17:38 49° SW 01:21:34 11° SSE
BREEZE-M DEB (TANK) 3.2 01:16:02 10° SSW 01:19:03 43° SE 01:27:26 10° ENE
Cosmos 1697 Rocket 2.9 01:17:04 10° NNW 01:22:41 60° ENE 01:27:44 13° SE
Meteor 2-13 Rocket 4.4 01:20:53 10° S 01:27:00 78° E 01:33:06 10° N
Terra 3.8 01:26:03 10° E 01:28:48 15° ENE 01:31:34 10° NNE
Cosmos 2082 Rocket 2.6 01:23:58 10° S 01:29:13 42° ESE 01:34:31 10° NE
ERBS 3.7 01:27:40 10° NNW 01:30:30 27° NE 01:32:57 12° E
IGS 5A 3.4 01:28:00 10° SSE 01:32:09 88° E 01:36:19 10° NNW
Cosmos 1833 Rocket 2.7 01:27:19 10° SSW 01:32:57 88° WNW 01:38:39 10° NNE
Cosmos 1953 Rocket 4.4 01:28:58 10° SSW 01:33:21 54° W 01:37:46 10° N
Cosmos 1606 3.2 01:30:10 10° N 01:33:45 40° ENE 01:36:14 18° SE
SPOT 3 Rocket 3.6 01:28:49 10° SSE 01:33:56 72° ENE 01:39:10 10° N
USA 305 4.1 01:30:31 10° WNW 01:34:16 32° SW 01:37:38 12° SSE
USA 308 4.0 01:30:31 10° WNW 01:34:25 36° SW 01:37:46 13° SSE
Cosmos 773 Rocket 4.0 01:33:02 10° S 01:38:09 60° ESE 01:43:16 10° NNE
Cosmos 2279 Rocket 4.2 01:39:44 10° N 01:45:55 75° W 01:52:05 10° S
Cosmos 2151 3.8 01:47:17 21° SE 01:49:17 31° E 01:53:03 10° NNE
Landsat 7 4.1 01:49:11 11° S 01:53:47 65° WSW 01:58:32 10° NNW
Cosmos 1842 Rocket 3.7 01:51:12 10° N 01:55:41 80° W 01:59:20 15° S
GP-B 4.1 01:51:48 10° NNE 01:55:44 30° E 01:57:25 23° ESE
Cosmos 2058 3.8 01:51:50 10° SSW 01:55:53 51° W 02:00:00 10° N
COSMOS 2406 3.7 01:50:33 10° SW 01:56:11 65° WNW 02:01:52 10° NNE
Cosmos 1825 4.2 01:54:01 10° SW 01:57:18 29° WNW 02:00:38 10° NNW
Meteor 2-3 Rocket 4.4 01:54:12 20° SE 01:57:21 35° E 02:02:28 10° NNE
Cosmos 2369 3.7 01:51:50 10° NNW 01:57:32 80° ENE 02:01:22 21° SSE
ERS-1 Rocket 3.5 02:00:52 23° SE 02:03:38 45° ENE 02:08:24 10° N
Spot 2 Rocket 3.6 02:01:34 22° SSE 02:04:50 67° ENE 02:09:55 10° N
Cosmos 1076 Rocket 3.4 02:02:51 14° S 02:06:37 88° ESE 02:11:00 10° N
ATLAS 2AS CENTAUR R/B 3.2 02:00:41 10° SW 02:08:37 76° NW 02:16:24 10° NE
Cosmos 1980 Rocket 2.2 02:03:12 10° NNW 02:08:49 73° ENE 02:12:06 26° SE
Resurs 01 Rocket 3.0 02:09:07 10° SSW 02:13:10 34° W 02:17:13 10° NNW
Nadezhda 4 Rocket 4.0 02:08:24 10° S 02:14:32 86° W 02:20:47 10° N
Cosmos 2322 Rocket 3.9 02:11:44 10° N 02:15:56 21° NE 02:19:11 13° E
Cosmos 1538 Rocket 3.9 02:13:44 14° S 02:18:16 68° ESE 02:23:27 10° NNE
Cosmos 158 Rocket 4.1 02:18:30 26° SSE 02:21:06 51° ESE 02:26:10 10° NNE
RESURS DK-1 2.6 02:19:59 10° SSW 02:24:07 70° WNW 02:28:17 10° NNE
Cosmos 2098 Rocket 3.1 02:22:42 22° SW 02:24:15 45° W 02:27:20 10° N
USA 267 3.2 02:18:52 10° NE 02:25:21 62° SE 02:31:49 10° SW
USA 245 4.5 02:22:59 19° S 02:27:05 61° WSW 02:31:54 10° NNW
Cosmos 1271 Rocket 3.3 02:23:30 10° N 02:27:18 42° ENE 02:28:02 37° ESE
Meteor 2-19 Rocket 4.3 02:22:44 18° S 02:27:21 82° E 02:33:25 10° N
ATLAS 3B R/B 2.9 02:21:26 10° NNW 02:28:34 72° NE 02:32:46 28° SE
BREEZE-M DEB (TANK) 4.0 02:24:56 10° WNW 02:28:40 85° NNE 02:36:58 19° ESE
Cosmos 1633 3.9 02:29:08 12° SW 02:32:08 37° WNW 02:35:31 10° N
SPOT 1/Viking Rocket 4.4 02:28:26 17° SSW 02:32:12 45° W 02:37:13 10° NNW
ISS -2.0 02:33:10 10° NW 02:36:09 28° NNE 02:37:38 20° ENE
Cosmos 1933 3.2 02:36:01 10° N 02:40:06 86° E 02:41:03 52° SSE
Cosmos 1428 Rocket 4.4 02:37:00 28° S 02:40:27 74° E 02:46:35 10° NNE
ARIANE 5 R/B 2.9 02:38:33 33° S 02:40:28 65° WSW 02:44:57 10° NNW
SL-16 R/B 3.0 02:36:05 10° NNW 02:41:23 39° ENE 02:43:41 28° ESE
SPOT 5 2.7 02:44:08 41° S 02:45:34 72° WSW 02:49:54 10° NNW
Cosmos 1553 Rocket 4.4 02:40:55 10° N 02:46:45 46° ENE 02:48:47 34° ESE
Cosmos 304 Rocket 3.9 02:42:21 10° NNW 02:47:07 63° ENE 02:48:21 46° SE
USA 276 4.3 02:49:38 10° NW 02:52:18 24° N 02:53:41 18° NE
USA 234 3.9 02:53:40 18° E 02:58:28 49° NNE 03:04:44 10° NW
Meteor 1-26 Rocket 4.3 02:56:10 10° NNW 03:02:11 79° W 03:04:28 39° S
Cosmos 371 Rocket 3.9 02:59:08 10° NNW 03:03:46 49° WSW 03:05:07 37° SSW
Cosmos 923 Rocket 3.9 03:03:16 43° S 03:05:01 77° ESE 03:10:23 10° NNE
Terra 2.0 03:04:43 45° SSW 03:06:00 66° WSW 03:10:45 10° NNW
ERBS 4.0 03:03:41 10° WNW 03:05:39 25° W 03:05:39 25° W
Cosmos 1515 Rocket 4.4 03:06:16 10° N 03:10:23 36° ENE 03:10:27 36° ENE
Cosmos 1862 3.9 03:12:07 45° ENE 03:12:07 45° ENE 03:15:25 10° NNE
Cosmos 2082 Rocket 4.0 03:08:29 10° WSW 03:13:25 31° NW 03:18:24 10° N
S3M 4.4 03:07:56 10° N 03:14:09 51° ENE 03:15:54 41° ESE
Cosmos 2278 4.5 03:09:12 10° NW 03:14:29 42° WSW 03:16:22 32° SSW
Cosmos 2056 Rocket 4.2 03:14:07 10° N 03:19:15 43° ENE 03:20:20 38° E
ALOS 2 4.4 03:18:53 19° ENE 03:19:16 19° ENE 03:22:24 10° NNE
Cosmos 1766 Rocket 3.6 03:18:52 62° SW 03:19:30 74° W 03:23:55 10° N
Cosmos 1812 2.9 03:15:56 10° N 03:19:23 62° NE 03:19:23 62° NE
Meteor 2-14 Rocket 4.3 03:17:55 46° S 03:19:53 80° E 03:26:03 10° N
Cosmos 1782 3.3 03:19:08 10° NNW 03:23:03 50° W 03:23:15 50° WSW
Cosmos 2333 Rocket 4.0 03:20:48 10° N 03:25:06 21° NE 03:27:40 16° E
Gbstr 26 Del rocket 3.6 03:23:54 10° NW 03:27:38 46° NNE 03:28:19 42° ENE
Cosmos 2360 Rocket 2.9 03:26:17 10° NNW 03:31:39 44° ENE 03:33:01 37° E
Cosmos 1328 Rocket 3.6 03:29:29 10° NNW 03:33:55 70° W 03:34:03 69° WSW
Cosmos 2112 Rocket 4.0 03:38:50 58° SSW 03:39:55 82° WNW 03:45:14 10° NNE
Cosmos 1371 Rocket 4.0 03:34:54 10° NNW 03:40:18 73° ENE 03:40:56 65° ESE
Cosmos 1680 Rocket 3.7 03:40:31 46° SW 03:42:01 68° WNW 03:47:17 10° NNE
Cosmos 1151 Rocket 3.9 03:40:24 10° NNW 03:44:27 39° W 03:44:42 39° W
Cosmos 1980 Rocket 4.2 03:48:48 10° WNW 03:52:08 16° W 03:53:53 14° WSW
BREEZE-M DEB (TANK) 3.9 03:49:28 10° WNW 03:53:55 52° SSW 03:55:45 44° S
IRIDIUM 106 4.3 03:51:09 10° N 03:56:22 65° E 03:56:30 64° E
Cosmos 2322 Rocket 2.1 03:54:55 10° NNW 04:00:32 68° WSW 04:00:59 65° SW
Cosmos 1500 Rocket 3.8 04:05:32 66° N 04:05:32 66° N 04:09:21 10° N
USA 267 4.2 04:02:01 10° NE 04:08:13 48° NNW 04:14:26 10° W
ISS -1.0 04:09:49 10° WNW 04:10:34 16° WNW 04:10:34 16° WNW
Cosmos 2315 Rocket 3.9 04:10:16 10° N 04:16:37 83° E 04:17:33 66° SSE
ATLAS 3B R/B 4.1 04:13:02 10° WNW 04:18:44 26° WSW 04:20:00 25° SW
Cosmos 292 Rocket 3.8 04:14:03 10° NNW 04:18:26 74° N 04:18:26 74° N
Cosmos 2237 4.3 04:14:34 10° NNW 04:20:12 63° WSW 04:20:24 62° WSW
Spot 4 4.2 04:22:24 56° W 04:22:24 56° W 04:26:51 10° NNW
Meteor 1-27 Rocket 3.6 04:16:33 10° NNW 04:22:11 80° W 04:22:32 76° SW
Cosmos 1624 Rocket 4.3 04:17:19 10° NNW 04:22:13 53° W 04:22:13 53° W
COSMOS 2428 3.7 04:17:36 10° N 04:22:53 37° ENE 04:24:20 32° E
Cosmos 2333 4.3 04:17:23 10° NNW 04:22:58 63° ENE 04:23:31 59° E
Cosmos 1743 Rocket 4.1 04:23:27 56° NW 04:23:27 56° NW 04:27:27 10° N
Cosmos 2228 Rocket 3.5 04:18:54 10° N 04:22:34 61° N 04:22:34 61° N
SL-16 R/B 3.2 04:20:23 10° NW 04:25:22 32° WSW 04:25:32 32° WSW
Cosmos 2219 Rocket 2.7 04:23:16 10° NNW 04:28:43 49° ENE 04:29:33 45° E
Thor Agena Rocket 4.3 04:30:35 10° NNE 04:34:44 40° E 04:34:44 40° E
Cosmos 1420 Rocket 4.2 04:32:14 10° NNW 04:37:14 60° W 04:37:14 60° W
Cosmos 1633 Rocket 4.2 04:41:08 35° NE 04:41:08 35° NE 04:44:12 10° NNE
USA 234 3.2 04:41:00 58° SSW 04:41:23 59° SW 04:47:51 10° NW
COSMOS 2455 2.7 04:44:29 76° SE 04:44:39 77° ESE 04:50:41 10° NNE
Sich 1 3.6 04:45:43 56° N 04:45:43 56° N 04:49:14 10° N
Cosmos 489 Rocket 4.4 04:48:18 69° SE 04:48:46 73° ESE 04:55:06 10° NNE
BREEZE-M DEB (TANK) 3.8 04:37:10 10° WSW 04:49:05 77° SSE 04:53:01 10° ENE
Nimbus 7 Rocket 4.3 04:45:27 10° NNE 04:51:31 87° WNW 04:52:08 74° SSW
Cosmos 1452 Rocket 3.4 04:47:01 10° NNW 04:52:03 81° NNW 04:52:03 81° NNW
Meteor 1-20 Rocket 4.1 04:53:51 74° W 04:54:03 76° W 04:59:42 10° N
ALOS 2 3.7 04:56:16 36° WNW 04:56:16 36° WNW 04:59:28 10° NNW
Meteor 1-18 Rocket 4.3 04:55:16 10° N 05:01:10 70° ENE 05:01:37 67° ESE
Cosmos 1745 Rocket 4.3 05:00:51 50° ESE 05:01:28 52° E 05:07:31 10° NNE
Cosmos 1862 Rocket 4.3 05:00:03 10° N 05:03:33 48° NE 05:03:33 48° NE
Geosat 4.0 05:05:50 80° NE 05:05:50 80° NE 05:10:46 10° NNW
ATLAS 5 CENTAUR R/B 3.2 05:04:11 10° NNW 05:09:29 44° NE 05:12:56 24° ESE
Cosmos 2333 Rocket 2.2 05:04:16 10° NNW 05:09:38 66° W 05:09:38 66° W
Cosmos 1707 Rocket 4.4 05:10:18 10° NNW 05:13:31 45° NW 05:13:31 45° NW
Cosmos 2360 Rocket 3.5 05:10:42 10° NW 05:14:45 27° W 05:14:45 27° W
Lacrosse 5 3.9 05:18:45 17° E 05:18:45 17° E 05:20:35 10° ENE
SL-16 R/B 4.4 05:15:03 11° ESE 05:19:19 23° ENE 05:23:58 10° N
Resurs 1-4 Rocket 4.0 05:18:13 10° NE 05:21:48 18° E 05:22:21 18° E
Cosmos 1110 Rocket 3.9 05:18:57 10° NNW 05:24:10 85° NNW 05:24:10 85° NNW
Nadezhda 1 Rocket 4.0 05:17:54 10° N 05:24:21 79° E 05:25:20 64° SSE
Cosmos 2322 4.1 05:19:28 10° NNW 05:24:37 51° W 05:24:37 51° W
Cosmos 1386 Rocket 4.4 05:26:53 69° SSE 05:27:44 83° E 05:34:12 10° N
NOSS 3-1 (C) 4.1 05:21:41 10° NW 05:29:20 67° WSW 05:31:18 53° S
Meteor 1-19 Rocket 4.4 05:26:16 10° NNW 05:31:45 55° W 05:31:45 55° W
Meteor 1-14 Rocket 4.0 05:33:56 80° WSW 05:34:08 82° W 05:39:45 10° N
Cosmos 1331 Rocket 3.9 05:29:08 10° NNW 05:34:07 77° WNW 05:34:07 77° WNW
Cosmos 2297 Rocket 2.6 05:37:04 48° ESE 05:37:07 48° ESE 05:42:34 10° NE
ARGOS Delta rocket 4.4 05:34:34 10° NNE 05:38:47 48° E 05:38:47 48° E
USA 229 DEB 3.8 05:33:23 10° NW 05:40:48 83° WSW 05:43:12 49° SSE
USA 229 3.8 05:33:29 10° NW 05:40:54 84° WSW 05:43:21 48° SSE
Cosmos 2242 Rocket 4.2 05:38:35 10° N 05:42:35 49° ENE 05:42:35 49° ENE
Cosmos 2237 Rocket 2.6 05:37:29 10° NNW 05:43:06 58° ENE 05:44:36 44° ESE
Cosmos 2227 Rocket 2.7 05:47:43 44° ESE 05:47:57 44° ESE 05:53:18 10° NE
PSLV R/B 4.5 05:43:44 10° N 05:48:12 45° WNW 05:48:12 45° WNW
ASTEX 1 4.0 05:50:13 46° E 05:50:43 47° ENE 05:55:25 10° N
Meteor 2-4 Rocket 3.9 05:54:01 10° NNW 05:59:51 58° W 06:00:14 57° WSW
CZ-2D R/B 3.0 05:55:11 10° NNE 06:00:13 39° E 06:01:02 36° ESE
NOSS 3-1 (A) 4.1 05:53:33 10° NW 06:01:13 68° WSW 06:04:01 45° S
Cosmos 1269 Rocket 3.8 06:01:46 82° SW 06:01:59 86° WNW 06:07:18 10° NNE
ADEOS II 4.0 05:58:29 10° NE 06:02:13 19° E 06:03:49 17° ESE
Cosmos 1869 Rocket 4.1 06:02:38 52° E 06:02:38 52° E 06:06:49 10° NNE
Cosmos 1743 4.2 06:04:42 30° ENE 06:04:42 30° ENE 06:07:36 10° NNE
Cosmos 1340 Rocket 3.6 06:07:38 47° NNW 06:07:38 47° NNW 06:10:36 10° N
SL-16 R/B 3.7 06:01:39 10° N 06:06:45 33° NE 06:11:49 10° ESE
COSMOS 2428 3.7 06:02:00 10° NW 06:06:19 33° W 06:06:19 33° W
Cosmos 2219 Rocket 3.6 06:07:53 10° NW 06:11:15 23° W 06:11:15 23° W
Cosmos 2263 Rocket 4.5 06:12:47 10° ESE 06:15:06 13° E 06:17:26 10° ENE
Cosmos 1933 Rocket 4.2 06:16:00 46° WNW 06:16:00 46° WNW 06:19:58 10° N
Timation 1 Rocket 4.5 06:15:47 52° SSE 06:16:47 60° ESE 06:22:41 10° NNE
Helios 1A 3.2 06:17:20 68° NNW 06:17:20 68° NNW 06:21:04 10° NNW
Okean 3 3.6 06:15:28 10° N 06:19:37 70° ENE 06:19:37 70° ENE
Intercosmos 25 Rocket 4.0 06:20:35 46° NNW 06:20:35 46° NNW 06:23:55 10° N
Okean 1-7 3.5 06:17:27 10° NNW 06:20:56 51° NW 06:20:56 51° NW
Cosmos 1302 Rocket 4.1 06:18:40 10° NNW 06:23:41 59° W 06:23:41 59° W
Cosmos 1992 Rocket 4.4 06:18:46 10° NNW 06:23:57 59° ENE 06:25:52 37° SE
YAOGAN 11 4.5 06:27:15 55° WNW 06:27:15 55° WNW 06:31:19 10° NNW
Cosmos 909 Rocket 4.1 06:32:17 49° SSW 06:34:16 88° WNW 06:41:48 10° NNE
Cosmos 2219 3.3 06:34:37 54° SW 06:35:50 71° WNW 06:41:37 10° NNE
UNK 3.9 06:36:39 53° SE 06:37:38 72° ENE 06:42:18 10° N
Helios 1B rocket 2.9 06:34:27 10° NNE 06:38:27 49° E 06:38:41 48° ESE
Cosmos 1709 Rocket 4.4 06:37:29 41° WSW 06:38:58 48° WNW 06:45:07 10° N
Cosmos 1066 Rocket 4.3 06:34:45 10° NNW 06:40:34 66° W 06:41:47 53° SSW
MOZ.5/SAFIR/RUBIN 5/SL-8 4.3 06:47:17 43° W 06:47:17 43° W 06:51:34 10° NNW
Timation 2 Rocket 3.8 06:46:12 50° SW 06:47:53 83° WNW 06:54:00 10° NNE
Cosmos 2084 Rocket 3.3 06:48:34 10° NW 06:52:38 71° WSW 06:52:38 71° WSW
IDEFIX/ARIANE 42P 4.0 06:48:20 10° NE 06:52:53 30° E 06:55:37 19° SE
ATLAS 5 CENTAUR R/B 2.9 06:48:46 10° NW 06:54:12 40° WSW 06:54:21 40° WSW
Cosmos 2082 3.7 06:54:29 48° SSW 06:56:11 81° ESE 07:01:56 10° NNE
Cosmos 2251 Rocket 3.5 06:56:04 51° S 06:57:27 81° ESE 07:02:45 10° NNE
Meteor 1-11 Rocket 4.3 06:56:39 37° WSW 06:57:51 41° WNW 07:03:05 10° N
Cosmos 1536 4.0 06:58:20 31° WNW 06:58:20 31° WNW 07:01:40 10° NNW
Lacrosse 5 2.0 06:57:57 47° WSW 06:59:20 70° NW 07:04:24 10° NE
Cosmos 2184 Rocket 3.9 06:59:24 40° S 07:01:49 86° W 07:08:08 10° N
Resurs 1-4 Rocket 2.3 06:56:47 10° N 07:02:01 60° WNW 07:03:26 44° SW
SL-16 R/B 2.5 07:00:09 40° SSW 07:02:23 65° WSW 07:08:32 10° NNW
Cosmos 2154 Rocket 4.0 07:05:53 32° S 07:08:56 75° E 07:15:09 10° N
Cosmos 1733 Rocket 3.0 07:13:20 53° SSW 07:14:21 80° W 07:18:49 10° N
SL-8 R/B 4.1 07:15:14 41° S 07:16:04 46° SE 07:20:40 10° ENE
Cosmos 1140 Rocket 4.2 07:14:54 26° SSE 07:17:27 47° ESE 07:22:27 10° NNE
AQUA 4.0 07:15:42 10° N 07:20:23 59° WNW 07:21:46 41° SW
Cosmos 2297 Rocket 3.6 07:18:52 20° W 07:21:24 28° NW 07:26:13 10° N
NPP 4.0 07:16:57 10° N 07:22:10 51° WNW 07:24:07 34° WSW
Cosmos 2074 Rocket 4.2 07:23:14 33° SW 07:25:48 54° WNW 07:31:55 10° N
Cosmos 2237 Rocket 3.6 07:22:31 10° NW 07:26:22 21° W 07:26:22 21° W
ARIANE 5 R/B 4.0 07:26:04 10° NE 07:30:39 31° E 07:35:14 10° SSE
Okean 2 3.5 07:26:34 10° N 07:30:45 74° E 07:33:05 25° SSE
ADEOS Rocket 3.0 07:29:11 32° SSW 07:31:22 49° W 07:36:42 10° NNW
Cosmos 2227 Rocket 3.4 07:29:32 21° W 07:32:09 30° NW 07:37:05 10° N
CZ-2D R/B 3.3 07:35:30 10° N 07:40:06 30° WNW 07:42:21 22° WSW
ADEOS II 2.3 07:37:06 10° N 07:42:14 55° WNW 07:44:45 29° SW
Meteor 1-28 Rocket 3.1 07:41:29 40° SSW 07:42:37 61° W 07:46:19 10° NNW
Meteor 2-9 Rocket 4.3 07:43:10 30° SW 07:45:39 56° WNW 07:50:55 10° N
SL-8 Rocket 4.5 07:40:17 12° S 07:46:01 58° E 07:52:02 10° NNE
IRS-1D 3.5 07:41:09 10° N 07:46:05 67° WNW 07:48:42 28° SSW
NOSS 3-3 (A) 4.0 07:44:35 26° SSW 07:47:57 70° ESE 07:54:19 10° NE
NOSS 3-3 (C) 4.0 07:44:42 26° SSW 07:48:03 69° ESE 07:54:24 10° NE
EP 1 4.5 07:47:55 50° SW 07:48:38 90° SW 07:51:24 10° NE
Cosmos 2227 4.4 07:45:48 22° S 07:49:28 66° ESE 07:55:03 10° NNE
Cosmos 1782 Rocket 4.4 07:46:19 14° SSE 07:49:50 46° E 07:54:01 10° NNE
SL-16 R/B 2.7 07:45:42 10° NW 07:50:55 39° WSW 07:53:48 23° SSW
Iridium 4 Rocket 3.9 07:46:43 10° N 07:52:06 57° W 07:55:46 22° SSW
Cosmos 2263 Rocket 2.2 07:54:29 23° SSW 07:58:08 89° WNW 08:03:52 10° NNE
Cosmos 1975 3.6 07:57:17 28° WSW 07:58:41 36° WNW 08:02:29 10° N
ATLAS CENTAUR R/B 1.8 07:57:40 23° S 07:59:39 47° ESE 08:03:25 10° NE
Landsat 4 4.2 07:57:17 10° N 08:00:47 41° WNW 08:02:12 28° WSW
CZ-4C R/B 3.0 07:55:09 10° NW 08:02:34 89° SW 08:11:07 10° SSE
Cosmos 407 Rocket 3.7 08:01:06 23° SW 08:04:21 62° WNW 08:09:36 10° NNE
Cosmos 1707 2.8 08:03:55 10° NNW 08:07:40 53° W 08:10:01 21° SSW
Cosmos 1461 3.3 08:05:09 24° SW 08:07:47 58° NW 08:12:13 10° NNE
Meteor 1-29 4.4 08:07:10 10° NNW 08:09:49 22° WNW 08:10:46 20° W
Cosmos 2344 3.5 08:04:50 19° SW 08:10:28 82° NW 08:18:16 10° NE
ALOS 4.4 08:06:50 10° NE 08:10:34 23° E 08:14:17 10° SSE
GEOS 3 Rocket 3.9 08:06:24 10° SE 08:11:44 74° NE 08:17:03 10° NNW
Cosmos 2341 Rocket 4.0 08:06:43 16° SSW 08:11:53 72° W 08:18:07 10° N
Helios 1B rocket 4.4 08:10:53 10° NNW 08:13:16 15° WNW 08:14:58 12° W
Spot 1 3.9 08:09:29 10° S 08:13:40 78° WSW 08:17:46 10° NNW
In-Cosmos 22 4.2 08:08:12 10° NNW 08:13:57 70° W 08:19:37 10° S
Cosmos 2218 Rocket 4.1 08:08:00 10° S 08:14:22 81° E 08:20:43 10° N
Cosmos 1238 Rocket 3.8 08:18:43 18° W 08:19:34 20° WNW 08:22:08 10° NNW
SL-08 R/B 3.5 08:15:59 10° SSE 08:20:56 83° ENE 08:25:54 10° NNW
COSMOS 2441 4.4 08:16:46 10° N 08:21:33 67° WNW 08:25:38 14° SSW
Cosmos 1733 4.0 08:18:40 10° S 08:22:23 50° E 08:26:07 10° NNE
Cosmos 1300 Rocket 4.2 08:26:06 10° S 08:30:19 56° E 08:34:36 10° NNE
Cosmos 1943 3.2 08:24:56 10° NNW 08:30:39 76° WSW 08:36:19 10° SSE
IRS-P3 4.3 08:26:00 10° N 08:31:17 62° WNW 08:36:17 11° SSW
BREEZE-M DEB (TANK) 2.8 08:30:27 16° W 08:32:21 53° NNW 08:34:41 10° NE
IDEFIX/ARIANE 42P 3.4 08:27:48 10° N 08:32:28 35° WNW 08:36:25 14° SW
Cosmos 1975 Rocket 3.0 08:30:38 10° NNW 08:35:02 74° W 08:39:22 10° S
USA 290 3.9 08:32:24 10° N 08:35:28 37° ENE 08:38:30 10° SE
SL-24 R/B - RUBIN 2 4.0 08:31:16 10° NNW 08:36:18 73° NE 08:40:46 10° SE
CZ-3 Stage 3 3.6 08:35:44 10° SSE 08:37:23 12° SE 08:39:46 10° ESE
CZ-2C R/B 2.6 08:32:56 10° NNE 08:37:30 68° ESE 08:42:05 10° S
Cosmos 1340 2.7 08:36:15 10° NNW 08:39:56 55° W 08:43:34 10° S
USA 215 3.4 08:34:50 10° NE 08:41:23 73° SE 08:47:54 10° SW
Cosmos 1900 4.4 08:37:53 11° SSW 08:42:44 84° ESE 08:47:42 10° NNE
Lacrosse 5 3.8 08:39:07 10° WNW 08:43:05 22° NNW 08:47:04 10° NNE
Cosmos 1626 2.0 08:40:29 10° N 08:44:11 83° W 08:47:51 10° S
Cosmos 1400 Rocket 2.7 08:41:00 10° SSW 08:44:51 77° WNW 08:48:46 10° N
Cosmos 1674 3.2 08:46:38 10° NNW 08:50:14 38° W 08:53:47 10° SSW
Meteor 1-12 Rocket 4.4 08:45:52 10° SSW 08:51:24 59° WNW 08:57:04 10° N
Cosmos 1315 Rocket 4.4 08:48:41 10° SSE 08:52:28 37° E 08:56:14 10° NNE
BREEZE-M DEB (TANK) 3.8 08:48:17 10° WSW 08:56:12 52° NNW 08:59:00 10° NE
PSLV R/B 4.4 08:53:42 10° NNE 08:57:55 52° E 09:02:04 10° S
SL-8 R/B 4.2 08:53:50 10° W 08:58:35 59° NNW 09:03:21 10° ENE
Cosmos 1850 Rocket 4.3 08:55:46 10° S 09:01:02 72° ESE 09:06:18 10° NNE
Meteor 2-5 Rocket 4.1 08:57:37 10° N 09:03:35 76° E 09:09:25 10° SSE
Cosmos 468 Rocket 4.0 08:59:25 10° NNW 09:04:46 83° WSW 09:10:00 10° SSE
CZ-4B R/B 4.0 09:00:32 10° N 09:05:06 41° WNW 09:09:34 10° SW
Cosmos 1821 Rocket 4.0 09:01:14 10° S 09:07:24 90° ESE 09:13:33 10° N
Cosmos 1025 Rocket 3.1 09:04:47 10° NNW 09:09:01 56° W 09:13:14 10° S
Cosmos 44 4.1 09:04:48 10° NW 09:09:22 32° WSW 09:13:40 10° S
ARIANE 5 R/B 3.4 09:05:05 10° N 09:09:43 34° WNW 09:14:21 10° SW
Cosmos 1844 Rocket 2.9 09:06:08 10° SSW 09:11:46 78° ESE 09:17:27 10° NNE
